This demonstration page uses our WeatherBlox Daily Observations layout. Learn more.

Left ArrowRight Arrow

Hourly Observations for July 9, 2016

Temp ( °F °C ) Dew Point ( °F °C ) Humidity (%) Winds ( mph kmh ) Pressure ( in mb ) Visibility ( mi km ) Precip ( " mm )
12:53 am 00:53 Clear 83 28.3 72 22.2 70 70 VRB 3 6 29.99 1016 10 16 0.00 0.00
1:53 am 01:53 Clear 83 28.3 70 21.1 65 65 W 5 7 29.99 1016 10 16 0.00 0.00
2:53 am 02:53 Clear 82 27.8 70 21.1 67 67 W 3 6 29.98 1015 10 16 0.00 0.00
3:53 am 03:53 Clear 81 27.2 70 21.1 69 69 Calm 29.96 1015 10 16 0.00 0.00
4:53 am 04:53 Clear 78 25.6 70 21.1 76 76 WNW 3 6 29.97 1015 10 16 0.00 0.00
5:53 am 05:53 Clear 78 25.6 71 21.7 79 79 SSW 5 7 29.98 1015 10 16 0.00 0.00
6:53 am 06:53 Sunny 76 24.4 71 21.7 85 85 Calm 30.00 1016 10 16 0.00 0.00
7:53 am 07:53 Sunny 78 25.6 71 21.7 79 79 WNW 3 6 30.02 1017 10 16 0.00 0.00
8:53 am 08:53 Sunny 82 27.8 70 21.1 67 67 VRB 3 6 30.03 1017 10 16 0.00 0.00
9:53 am 09:53 Sunny 84 28.9 70 21.1 63 63 WNW 8 13 30.04 1017 10 16 0.00 0.00
10:53 am 10:53 Sunny 87 30.6 71 21.7 59 59 W 10 17 30.04 1017 10 16 0.00 0.00
11:53 am 11:53 Partly Cloudy 89 31.7 72 22.2 57 57 WNW 9 15 30.04 1017 10 16 0.00 0.00
12:53 pm 12:53 Mostly Sunny 91 32.8 69 20.6 49 49 W 10 17 30.02 1017 10 16 0.00 0.00
1:53 pm 13:53 Mostly Cloudy 91 32.8 69 20.6 49 49 WNW 8 13 30.00 1016 10 16 0.00 0.00
2:53 pm 14:53 Sunny 93 33.9 71 21.7 49 49 NW 12 19 29.99 1016 10 16 0.00 0.00
3:53 pm 15:53 Sunny 92 33.3 68 20 46 46 NNW 14 22 29.97 1015 10 16 0.00 0.00
4:53 pm 16:53 Sunny 90 32.2 68 20 48 48 NNW 12 19 29.97 1015 10 16 0.00 0.00
5:53 pm 17:53 Sunny 87 30.6 69 20.6 55 55 NW 7 11 29.96 1015 10 16 0.00 0.00
6:53 pm 18:53 Sunny 88 31.1 70 21.1 55 55 NW 8 13 29.95 1014 10 16 0.00 0.00
7:53 pm 19:53 Sunny 86 30 70 21.1 59 59 WNW 7 11 29.99 1016 10 16 0.00 0.00
8:53 pm 20:53 Mostly Clear 85 29.4 70 21.1 61 61 W 5 7 30.01 1016 10 16 0.00 0.00
9:53 pm 21:53 Clear 83 28.3 66 18.9 57 57 SW 8 13 30.01 1016 10 16 0.00 0.00
10:53 pm 22:53 Clear 80 26.7 66 18.9 62 62 WNW 5 7 30.01 1016 10 16 0.00 0.00
11:53 pm 23:53 Clear 78 25.6 65 18.3 64 64 W 3 6 30.01 1016 10 16 0.00 0.00

Powered by AerisWeather